Showing default

BLUE RING PATHFINDER, 62720

Orbit data source: Space-Track

BLUE RING PATHFINDER, 62720 is a payload satellite owned by Blue Origin (US) in HEO that was launched on Thu, 16 Jan 2025 UTC via an NEW GLENN launch vehicle from the Air Force Eastern Test Range (AFETR). Payloads include a variety of satellites, spacecraft, and rockets equipped with specific instruments for various scientific and technological missions. These include communications satellites like Starlink; space stations such as the ISS; scientific satellites like the Hubble; Earth observation satellites from companies like Planet Labs, Umbra, and HawkEye 360; GPS; miniature CubeSats for education and research; and military/defense satellites.

Loading next visibility...
BLUE RING PATHFINDER details
Identifier
62720, 2025-011A
Orbit
HEO
Last TLE update20 hours ago
Origin
Flag of USBlue Origin (US)
ManufacturerBlue Origin
MissionOperational spacecraft
Bus & MotorBLUE RING, Unknown motor
Mass~33,980 kg wet, ~3,980 kg dry
Launch date (UTC)
2025-01-16 (3 weeks ago)
Launch vehicle
NEW GLENN
Launch site
Air Force Eastern Test Range (AFETR)
Object type
Payload
Rocket body
Debris
Shape & HBRUnknown
Radar Cross SectionLarge (>1 m²)

Expand to show TLE details & history

TLE from 20 hours ago
0 BLUE RING PATHFINDER
1 62720U 25011A   25035.34741215 -.00000086  00000-0  00000-0 0  9993
2 62720  30.0086  28.5316 4887708 280.6090  29.8483  3.84317051   734
Epoch: 2025-02-04T08:20Z
Definitive object data (Epoch: 2025-02-04T08:20:16.409Z)
Latitude-0.00013°
Longitude128.7123°
Altitude5,638.097 km
Speed6.572 km/s
True Right ascension01h 54m 08s
True Declination0° 00' 00"
Sunlit
Object was in daylight at TLE epoch
Visualization TLE readout
Latitude23.54125°
Longitude177.1785°
Altitude13,030.064 km
Speed4.234 km/s
Apparent Right ascension04h 49m 59s
Apparent Declination15° 41' 34"
Sunlit
Object is in daylight
Visualization observer readout
Local Sidereal Time05:56:16
Azimuth215.522° SW
Elevation61.798°
Doppler factor1
Orbital elements
Apogee altitude19,256.72 km
Perigee altitude2,424.62 km
Semi-major axis17,218.807 km
Eccentricity0.4887708
Inclination30.0086°
RAAN28.5316°
Arg. of periapsis280.609°
True anomaly79.39241°
Mean anomaly29.8483°
Eccentric anomaly51.87999°
Mean motion0.96059 °/min
BSTARUnknown
Orbital period374.77 mins
Loading maneuver chart data...
Loading historical data...
Loading historical data...
Loading historical data...
Loading historical data...
Loading historical data...
Loading historical data...
Loading historical data...
Other satellites on launch #11 in the year 2025 (2025-01-16 UTC)

BLUE RING PATHFINDER Visibility forecast

Observer location: undefined°, undefined

Span
Click to sort rows by Start time (UTC) header in descending order
Start Az.
Max El. time (UTC)
Max El. Az.
Max El.
End time (UTC)
End Az.
237 mins2025-02-05 03:54:31.136Z215.467° SW2025-02-05 04:44:31.136Z161.72° S44.02°2025-02-05 07:51:31.136Z113.692° SE
162 mins2025-02-05 11:38:31.136Z289.301° WNW2025-02-05 13:27:31.136Z265.099° W17.188°2025-02-05 14:20:31.136Z223.769° SW
84 mins2025-02-05 21:49:31.136Z134.777° SE2025-02-05 22:12:31.136Z102.576° ESE15.216°2025-02-05 23:13:31.136Z73.55° E
|